When you browse on this site, cookies collect data to enhance your experience and personalize the content and advertising you see.
Visit our Privacy Policy to learn more. By continuing to use the site, you agree to this use of cookies and data.
  • En España
  • Lista de países
  • Para 7 días
  • Temperatura del agua
  • Mapa Satelital
  • El tiempo en el mapa
  • Informadores
  • user-avatar
    Iniciar sesión

    Tiempo cada hora Sofia

    Hoy, 16 Enero, Miércoles

    Tiempo Temperatura Precipitaciones Viento Presión Humedad
    00:00 -6°C° 0 mm 1 mps 709 mmHg 89%
    01:00 -7°C° 0 mm 2 mps 709 mmHg 89%
    02:00 -7°C° 0 mm 2 mps 709 mmHg 90%
    03:00 -7°C° 0 mm 2 mps 709 mmHg 90%
    04:00 -7°C° 0 mm 2 mps 709 mmHg 90%
    05:00 -7°C° 0 mm 2 mps 709 mmHg 90%
    06:00 -7°C° 0 mm 2 mps 709 mmHg 88%
    07:00 -7°C° 0 mm 2 mps 709 mmHg 86%
    08:00 -6°C° 0 mm 2 mps 708 mmHg 83%
    09:00 -5°C° 0 mm 3 mps 709 mmHg 79%
    10:00 -2°C° 0 mm 3 mps 709 mmHg 75%
    11:00 -1°C° 0 mm 3 mps 709 mmHg 71%
    12:00 0°C° 0 mm 3 mps 709 mmHg 71%
    13:00 +1°C° 0 mm 3 mps 709 mmHg 70%
    14:00 0°C° 0 mm 7 mps 709 mmHg 49%
    15:00 0°C° 0 mm 5 mps 709 mmHg 55%
    16:00 -1°C° 0 mm 4 mps 709 mmHg 62%
    17:00 +1°C° 0 mm 2 mps 709 mmHg 68%
    18:00 -1°C° 0 mm 2 mps 709 mmHg 70%
    19:00 -2°C° 0 mm 2 mps 710 mmHg 72%
    20:00 -3°C° 0 mm 2 mps 710 mmHg 74%
    21:00 -3°C° 0 mm 2 mps 710 mmHg 74%
    22:00 -3°C° 0 mm 2 mps 710 mmHg 74%
    23:00 -3°C° 0 mm 2 mps 710 mmHg 74%

    Mañana, 17 Enero, Jueves

    Tiempo Temperatura Precipitaciones Viento Presión Humedad
    00:00 -1°C° 0 mm 1 mps 711 mmHg 73%
    01:00 -1°C° 0 mm 1 mps 711 mmHg 73%
    02:00 -1°C° 0 mm 1 mps 711 mmHg 72%
    03:00 -1°C° 0 mm 1 mps 711 mmHg 72%
    04:00 -1°C° 0 mm 1 mps 710 mmHg 71%
    05:00 -1°C° 0 mm 1 mps 710 mmHg 71%
    06:00 -1°C° 0 mm 1 mps 710 mmHg 71%
    07:00 -1°C° 0 mm 1 mps 710 mmHg 70%
    08:00 -1°C° 0 mm 1 mps 710 mmHg 70%
    09:00 +1°C° 0 mm 1 mps 711 mmHg 69%
    10:00 +2°C° 0 mm 1 mps 711 mmHg 68%
    11:00 +4°C° 0 mm 1 mps 711 mmHg 67%
    12:00 +5°C° 0 mm 1 mps 711 mmHg 68%
    13:00 +6°C° 0 mm 1 mps 711 mmHg 68%
    14:00 +7°C° 0 mm 1 mps 710 mmHg 69%
    15:00 +6°C° 0 mm 1 mps 710 mmHg 71%
    16:00 +5°C° 0 mm 1 mps 710 mmHg 74%
    17:00 +4°C° 0 mm 1 mps 710 mmHg 76%
    18:00 +3°C° 0 mm 1 mps 710 mmHg 77%
    19:00 +2°C° 0 mm 1 mps 710 mmHg 78%
    20:00 +2°C° 0 mm 1 mps 710 mmHg 78%
    21:00 +1°C° 0 mm 1 mps 710 mmHg 77%
    22:00 +1°C° 0 mm 1 mps 710 mmHg 76%
    23:00 +1°C° 0 mm 1 mps 710 mmHg 75%

    Pasado mañana, 18 Enero, Viernes

    Tiempo Temperatura Precipitaciones Viento Presión Humedad
    00:00 0°C° 0 mm 1 mps 710 mmHg 73%
    01:00 0°C° 0 mm 1 mps 710 mmHg 72%
    02:00 0°C° 0 mm 1 mps 710 mmHg 70%
    03:00 0°C° 0 mm 1 mps 710 mmHg 69%
    04:00 0°C° 0 mm 1 mps 709 mmHg 69%
    05:00 0°C° 0 mm 1 mps 709 mmHg 68%
    06:00 0°C° 0 mm 1 mps 709 mmHg 69%
    07:00 -1°C° 0 mm 1 mps 709 mmHg 69%
    08:00 -1°C° 0 mm 1 mps 709 mmHg 69%
    09:00 +1°C° 0 mm 1 mps 709 mmHg 68%
    10:00 +3°C° 0 mm 1 mps 710 mmHg 67%
    11:00 +4°C° 0 mm 1 mps 710 mmHg 65%
    12:00 +5°C° 0 mm 1 mps 710 mmHg 66%
    13:00 +5°C° 0 mm 2 mps 709 mmHg 66%
    14:00 +6°C° 0 mm 2 mps 709 mmHg 66%
    15:00 +5°C° 0 mm 2 mps 709 mmHg 69%
    16:00 +5°C° 0 mm 1 mps 709 mmHg 73%
    17:00 +3°C° 0 mm 1 mps 709 mmHg 76%
    18:00 +3°C° 0 mm 1 mps 709 mmHg 78%
    19:00 +3°C° 0 mm 1 mps 710 mmHg 79%
    20:00 +2°C° 0 mm 1 mps 710 mmHg 80%
    21:00 +2°C° 0 mm 1 mps 711 mmHg 81%
    22:00 +2°C° 0 mm 1 mps 711 mmHg 81%
    23:00 +1°C° 0 mm 1 mps 711 mmHg 81%

    19 Enero, Sábado

    Tiempo Temperatura Precipitaciones Viento Presión Humedad
    00:00 +1°C° 0 mm 1 mps 711 mmHg 81%
    01:00 +1°C° 0 mm 1 mps 711 mmHg 82%
    02:00 +1°C° 0 mm 1 mps 711 mmHg 82%
    03:00 0°C° 0 mm 0 mps 711 mmHg 82%
    04:00 0°C° 0 mm 0 mps 711 mmHg 82%
    05:00 +1°C° 0 mm 0 mps 711 mmHg 82%
    06:00 +1°C° 0 mm 0 mps 712 mmHg 82%
    07:00 +1°C° 0 mm 0 mps 712 mmHg 81%
    08:00 +2°C° 0 mm 1 mps 712 mmHg 81%
    09:00 +3°C° 0 mm 1 mps 712 mmHg 78%
    10:00 +4°C° 0 mm 1 mps 712 mmHg 76%
    11:00 +5°C° 0 mm 1 mps 713 mmHg 73%
    12:00 +6°C° 0 mm 1 mps 712 mmHg 73%
    13:00 +7°C° 0 mm 1 mps 712 mmHg 73%
    14:00 +7°C° 0 mm 1 mps 712 mmHg 72%
    15:00 +6°C° 0 mm 1 mps 712 mmHg 76%
    16:00 +5°C° 0 mm 1 mps 711 mmHg 80%
    17:00 +4°C° 0 mm 1 mps 711 mmHg 84%
    18:00 +3°C° 0 mm 1 mps 711 mmHg 85%
    19:00 +3°C° 0 mm 1 mps 711 mmHg 87%
    20:00 +2°C° 0 mm 1 mps 711 mmHg 89%
    21:00 +2°C° 0 mm 1 mps 711 mmHg 89%
    22:00 +2°C° 0 mm 1 mps 711 mmHg 89%
    23:00 +2°C° 0 mm 1 mps 711 mmHg 90%

    20 Enero, Domingo

    Tiempo Temperatura Precipitaciones Viento Presión Humedad
    00:00 +2°C° 0 mm 1 mps 711 mmHg 90%
    01:00 +2°C° 0 mm 1 mps 711 mmHg 90%
    02:00 +2°C° 0 mm 1 mps 710 mmHg 91%
    03:00 +2°C° 0 mm 1 mps 710 mmHg 91%
    04:00 +2°C° 0 mm 1 mps 710 mmHg 91%
    05:00 +2°C° 0 mm 1 mps 709 mmHg 91%
    06:00 +2°C° 0 mm 1 mps 709 mmHg 91%
    07:00 +2°C° 0 mm 1 mps 709 mmHg 91%
    08:00 +2°C° 0 mm 1 mps 709 mmHg 91%
    09:00 +3°C° 0 mm 1 mps 709 mmHg 89%
    10:00 +5°C° 0 mm 1 mps 709 mmHg 86%
    11:00 +6°C° 0 mm 1 mps 709 mmHg 84%
    12:00 +7°C° 0 mm 1 mps 709 mmHg 82%
    13:00 +6°C° 0 mm 2 mps 709 mmHg 80%
    14:00 +7°C° 0 mm 2 mps 708 mmHg 78%
    15:00 +6°C° 0.1 mm 2 mps 708 mmHg 81%
    16:00 +6°C° 0.1 mm 1 mps 708 mmHg 85%
    17:00 +5°C° 0.1 mm 1 mps 708 mmHg 89%
    18:00 +5°C° 0.1 mm 1 mps 708 mmHg 90%
    19:00 +4°C° 0.1 mm 1 mps 709 mmHg 91%
    20:00 +4°C° 0.1 mm 1 mps 709 mmHg 91%
    21:00 +4°C° 0 mm 1 mps 709 mmHg 91%
    22:00 +3°C° 0 mm 1 mps 709 mmHg 92%
    23:00 +3°C° 0 mm 1 mps 709 mmHg 92%

    21 Enero, Lunes

    Tiempo Temperatura Precipitaciones Viento Presión Humedad
    00:00 +2°C° 0 mm 1 mps 709 mmHg 92%
    01:00 +2°C° 0 mm 1 mps 709 mmHg 92%
    02:00 +2°C° 0 mm 1 mps 709 mmHg 92%
    03:00 +2°C° 0 mm 1 mps 709 mmHg 92%
    04:00 +1°C° 0 mm 1 mps 709 mmHg 92%
    05:00 +1°C° 0 mm 1 mps 710 mmHg 92%
    06:00 +1°C° 0 mm 1 mps 710 mmHg 92%
    07:00 +1°C° 0 mm 1 mps 710 mmHg 91%
    08:00 +1°C° 0 mm 1 mps 710 mmHg 91%
    09:00 +2°C° 0 mm 1 mps 711 mmHg 87%
    10:00 +3°C° 0 mm 1 mps 711 mmHg 83%
    11:00 +5°C° 0 mm 1 mps 711 mmHg 79%
    12:00 +5°C° 0 mm 1 mps 711 mmHg 77%
    13:00 +6°C° 0 mm 1 mps 711 mmHg 76%
    14:00 +7°C° 0 mm 1 mps 711 mmHg 74%
    15:00 +6°C° 0 mm 1 mps 711 mmHg 78%
    16:00 +5°C° 0 mm 1 mps 711 mmHg 82%
    17:00 +4°C° 0 mm 1 mps 711 mmHg 86%
    18:00 +3°C° 0 mm 1 mps 711 mmHg 88%
    19:00 +3°C° 0 mm 1 mps 711 mmHg 90%
    20:00 +2°C° 0 mm 1 mps 712 mmHg 92%
    21:00 +2°C° 0 mm 1 mps 712 mmHg 92%
    22:00 +2°C° 0 mm 1 mps 712 mmHg 93%
    23:00 +2°C° 0 mm 1 mps 712 mmHg 94%
    Mostrar más